Ana Sayfa
METAR-TAF:

METAR-TAF

Havaalanları :

Blanding, Utah, Amerika Birleşik Devletleri

Enlem: 37-35-00N, Boylam: 109-29-00W, yükseklik: 1789 m

Güncel hava durumu gözlemi

Rapor saat 08:15 UTC de 33 dakika önce yapıldı.
Rüzgar kuzeydan 9 kt
Sıcaklık 10°C
Nem 27%
Basınç 1020 hPa
Görüş mesafesi: 16.1 km

METAR: KBDG 250815Z AUTO 01009KT 10SM 10/M08 A3012 RMK AO1 T00991076

Saat: 02:48 (08:48 UTC)


TAF: eksik

4.000'den fazla havaalanı için hava durumu gözlemleri ve tahminleri (METAR ve TAF raporları).

Kullanılabilir istasyonlar harita üzerinde sarı ve kırmızı noktalarla gösterilir.

İstasyonun adını görmek için fareyi noktanın üzerinde gezdirin.

Sonrasında hava gözlem ve tahminlerini görmek için tıklayın.

Haritayı değiştirmek için: yaklaştırmak için siyah artı işaretli yeşil düğmeye ve uzaklaştırmak için de eksi işaretli düğmeye hızla tıklayın; bitişik haritalar için yeşil okları kullanın.


METAR-TAF: